When you browse on this site, cookies collect data to enhance your experience and personalize the content and advertising you see.
Visit our Privacy Policy to learn more. By continuing to use the site, you agree to this use of cookies and data.
  • In Denmark
  • List of Countries
  • For 7 days
  • Water Temperature
  • Weather Map
  • Weather Widgets
  • user-avatar
    Login

    Hourly Weather Orehovskiy

    Today, 21 February, Friday

    Time Temperature Precipitation Wind Pressure Humidity
    00:00 +2°C° 0 mm 2 mps 749 mmHg 92%
    01:00 +2°C° 0 mm 2 mps 749 mmHg 92%
    02:00 +2°C° 0 mm 2 mps 749 mmHg 92%
    03:00 +1°C° 0 mm 2 mps 749 mmHg 93%
    04:00 +1°C° 0 mm 2 mps 749 mmHg 93%
    05:00 +1°C° 0 mm 2 mps 749 mmHg 93%
    06:00 +1°C° 0 mm 2 mps 749 mmHg 93%
    07:00 +1°C° 0 mm 2 mps 749 mmHg 93%
    08:00 0°C° 0 mm 3 mps 749 mmHg 94%
    15:00 +3°C° 0 mm 4 mps 748 mmHg 76%
    16:00 +3°C° 0 mm 3 mps 748 mmHg 79%
    17:00 +2°C° 0 mm 3 mps 748 mmHg 82%
    18:00 +2°C° 0 mm 3 mps 749 mmHg 85%
    19:00 0°C° 0 mm 4 mps 749 mmHg 87%
    20:00 0°C° 0 mm 4 mps 750 mmHg 89%
    21:00 0°C° 0 mm 4 mps 750 mmHg 89%
    22:00 -1°C° 0 mm 4 mps 750 mmHg 89%
    23:00 0°C° 0 mm 3 mps 750 mmHg 88%

    Tomorrow, 22 February, Saturday

    Time Temperature Precipitation Wind Pressure Humidity
    00:00 -1°C° 0 mm 4 mps 750 mmHg 89%
    01:00 0°C° 0 mm 4 mps 750 mmHg 90%
    02:00 0°C° 0 mm 4 mps 751 mmHg 91%
    03:00 -1°C° 0 mm 4 mps 750 mmHg 92%
    04:00 -1°C° 0 mm 4 mps 750 mmHg 92%
    05:00 -2°C° 0 mm 4 mps 750 mmHg 93%
    06:00 -2°C° 0 mm 4 mps 751 mmHg 92%
    07:00 -2°C° 0 mm 4 mps 751 mmHg 91%
    08:00 -2°C° 0 mm 4 mps 751 mmHg 90%
    09:00 -1°C° 0 mm 4 mps 751 mmHg 86%
    10:00 0°C° 0 mm 5 mps 751 mmHg 82%
    11:00 +1°C° 0 mm 5 mps 751 mmHg 78%
    12:00 +1°C° 0 mm 6 mps 750 mmHg 77%
    13:00 +1°C° 0 mm 6 mps 750 mmHg 77%
    14:00 +2°C° 0 mm 6 mps 749 mmHg 76%
    15:00 +1°C° 0 mm 6 mps 749 mmHg 78%
    16:00 +1°C° 0 mm 6 mps 748 mmHg 79%
    17:00 0°C° 0 mm 7 mps 747 mmHg 80%
    18:00 -1°C° 0 mm 7 mps 746 mmHg 80%
    19:00 -1°C° 0 mm 7 mps 745 mmHg 80%
    20:00 -1°C° 0 mm 7 mps 745 mmHg 80%
    21:00 -1°C° 0.1 mm 8 mps 743 mmHg 81%
    22:00 -1°C° 0.1 mm 9 mps 742 mmHg 83%
    23:00 -1°C° 0.1 mm 9 mps 741 mmHg 85%

    Day after tomorrow, 23 February, Sunday

    Time Temperature Precipitation Wind Pressure Humidity
    00:00 -2°C° 1.2 mm 10 mps 740 mmHg 88%
    01:00 -3°C° 1.2 mm 10 mps 738 mmHg 92%
    02:00 -3°C° 1.2 mm 10 mps 737 mmHg 95%
    03:00 -3°C° 1.3 mm 10 mps 736 mmHg 96%
    04:00 -1°C° 1.3 mm 9 mps 735 mmHg 96%
    05:00 -1°C° 1.3 mm 8 mps 734 mmHg 96%
    06:00 -1°C° 0.6 mm 8 mps 734 mmHg 95%
    07:00 -1°C° 0.6 mm 8 mps 733 mmHg 94%
    08:00 -1°C° 0.6 mm 8 mps 733 mmHg 92%
    09:00 -1°C° 0.2 mm 7 mps 733 mmHg 89%
    10:00 +1°C° 0.2 mm 6 mps 733 mmHg 86%
    11:00 +1°C° 0.2 mm 6 mps 734 mmHg 83%
    12:00 +1°C° 0.2 mm 6 mps 734 mmHg 79%
    13:00 0°C° 0.2 mm 7 mps 734 mmHg 74%
    14:00 +2°C° 0.2 mm 7 mps 734 mmHg 69%
    15:00 +1°C° 0 mm 6 mps 734 mmHg 70%
    16:00 +1°C° 0 mm 6 mps 734 mmHg 71%
    17:00 0°C° 0 mm 5 mps 734 mmHg 72%
    18:00 0°C° 0 mm 5 mps 734 mmHg 74%
    19:00 -1°C° 0 mm 5 mps 735 mmHg 77%
    20:00 -1°C° 0 mm 5 mps 735 mmHg 79%
    21:00 -1°C° 0 mm 5 mps 734 mmHg 79%
    22:00 -1°C° 0 mm 5 mps 734 mmHg 80%
    23:00 -2°C° 0 mm 5 mps 733 mmHg 80%

    24 February, Monday

    Time Temperature Precipitation Wind Pressure Humidity
    00:00 -2°C° 0 mm 5 mps 733 mmHg 81%
    01:00 -2°C° 0 mm 4 mps 733 mmHg 83%
    02:00 -3°C° 0 mm 4 mps 732 mmHg 84%
    03:00 -3°C° 0 mm 4 mps 732 mmHg 85%
    04:00 -3°C° 0 mm 4 mps 732 mmHg 86%
    05:00 -3°C° 0 mm 4 mps 732 mmHg 87%
    06:00 -3°C° 0 mm 4 mps 732 mmHg 88%
    07:00 -3°C° 0 mm 4 mps 732 mmHg 88%
    08:00 -3°C° 0 mm 4 mps 733 mmHg 88%
    09:00 -2°C° 0.1 mm 5 mps 733 mmHg 82%
    10:00 0°C° 0.1 mm 5 mps 733 mmHg 77%
    11:00 +1°C° 0.1 mm 6 mps 734 mmHg 71%
    12:00 +1°C° 0 mm 6 mps 734 mmHg 67%
    13:00 0°C° 0 mm 7 mps 735 mmHg 62%
    14:00 +2°C° 0 mm 7 mps 735 mmHg 57%
    15:00 0°C° 0 mm 7 mps 736 mmHg 61%
    16:00 -1°C° 0 mm 7 mps 736 mmHg 65%
    17:00 -2°C° 0 mm 7 mps 737 mmHg 69%
    18:00 -3°C° 0 mm 6 mps 738 mmHg 69%
    19:00 -3°C° 0 mm 6 mps 739 mmHg 69%
    20:00 -3°C° 0 mm 6 mps 740 mmHg 69%
    21:00 -4°C° 0 mm 5 mps 741 mmHg 70%
    22:00 -4°C° 0 mm 5 mps 741 mmHg 70%
    23:00 -4°C° 0 mm 5 mps 742 mmHg 70%

    25 February, Tuesday

    Time Temperature Precipitation Wind Pressure Humidity
    00:00 -4°C° 0 mm 5 mps 742 mmHg 70%
    01:00 -5°C° 0 mm 5 mps 743 mmHg 69%
    02:00 -5°C° 0 mm 5 mps 743 mmHg 68%
    03:00 -4°C° 0 mm 4 mps 744 mmHg 69%
    04:00 -4°C° 0 mm 4 mps 744 mmHg 70%
    05:00 -4°C° 0 mm 4 mps 744 mmHg 71%
    06:00 -4°C° 0 mm 3 mps 744 mmHg 72%
    07:00 -4°C° 0 mm 3 mps 745 mmHg 73%
    08:00 -4°C° 0 mm 3 mps 745 mmHg 74%
    09:00 -2°C° 0 mm 3 mps 745 mmHg 67%
    10:00 -1°C° 0 mm 3 mps 745 mmHg 60%
    11:00 -1°C° 0 mm 3 mps 744 mmHg 53%
    12:00 -1°C° 0 mm 4 mps 744 mmHg 51%
    13:00 -1°C° 0 mm 4 mps 743 mmHg 50%
    14:00 0°C° 0 mm 5 mps 743 mmHg 48%
    15:00 0°C° 0 mm 5 mps 742 mmHg 50%
    16:00 -1°C° 0 mm 5 mps 742 mmHg 52%
    17:00 -1°C° 0 mm 5 mps 741 mmHg 54%
    18:00 -2°C° 0 mm 6 mps 741 mmHg 58%
    19:00 -2°C° 0 mm 6 mps 741 mmHg 61%
    20:00 -2°C° 0 mm 6 mps 740 mmHg 65%
    21:00 -2°C° 0 mm 6 mps 740 mmHg 71%
    22:00 -2°C° 0 mm 6 mps 740 mmHg 77%
    23:00 -1°C° 0 mm 6 mps 739 mmHg 84%

    26 February, Wednesday

    Time Temperature Precipitation Wind Pressure Humidity
    00:00 -1°C° 0.1 mm 6 mps 739 mmHg 84%
    01:00 -1°C° 0.1 mm 6 mps 739 mmHg 85%
    02:00 -1°C° 0.1 mm 6 mps 738 mmHg 85%
    03:00 -1°C° 0.2 mm 6 mps 738 mmHg 85%
    04:00 -1°C° 0.2 mm 6 mps 738 mmHg 86%
    05:00 0°C° 0.2 mm 5 mps 737 mmHg 86%
    06:00 0°C° 0 mm 5 mps 737 mmHg 85%
    07:00 0°C° 0 mm 5 mps 737 mmHg 85%
    08:00 0°C° 0 mm 5 mps 737 mmHg 84%
    09:00 -1°C° 0 mm 6 mps 737 mmHg 82%
    10:00 +1°C° 0 mm 6 mps 737 mmHg 80%
    11:00 +1°C° 0 mm 6 mps 737 mmHg 78%
    12:00 +1°C° 0 mm 6 mps 736 mmHg 77%
    13:00 +2°C° 0 mm 6 mps 736 mmHg 76%
    14:00 +2°C° 0 mm 6 mps 736 mmHg 75%
    15:00 +2°C° 0.1 mm 6 mps 735 mmHg 80%
    16:00 +1°C° 0.1 mm 5 mps 735 mmHg 85%
    17:00 0°C° 0.1 mm 5 mps 734 mmHg 91%
    18:00 0°C° 0.4 mm 5 mps 734 mmHg 93%
    19:00 +1°C° 0.4 mm 5 mps 734 mmHg 95%
    20:00 +1°C° 0.4 mm 4 mps 734 mmHg 96%
    21:00 +1°C° 0.4 mm 4 mps 734 mmHg 97%
    22:00 +1°C° 0.4 mm 4 mps 733 mmHg 97%
    23:00 +1°C° 0.4 mm 4 mps 733 mmHg 97%
    Show more